Flag for Poland Weather past 2 weeks in Rzeszów, Poland

Now
39 °F

Overcast.


Feels Like: 32 °F
Forecast: 37 / 48 °F
Wind: 10 mph from Southwest

Location: Rzeszow-Jasionka

Current Time: Dec 18, 2014 at 12:43:30 PM

Latest Report: Dec 18, 2014 at 12:00 PM


Visibility: N/A

Pressure: 29.92 "Hg

Humidity: 93%

Dew point: 37 °F

Location of RzeszówLocation

Historic Weather in Rzeszów — Graph

°F

Rzeszów temperature yesterday

Maximum temperature yesterday: 45 °F (at 12:00 AM)
Minimum temperature yesterday: 30 °F (at 11:00 PM)
Average temperature yesterday: 38 °F

Past Weeks' High & Low Weather Summary

 TemperatureHumidityPressure
High52 °F (Dec 15, 11:30 AM)100% (Dec 3, 11:00 PM)30.36 "Hg (Dec 3, 11:00 PM)
Low25 °F (Dec 4, 1:00 AM)61% (Dec 13, 4:30 AM)29.80 "Hg (Dec 12, 8:30 PM)
Average35 °F90%30.07 "Hg
* Reported Dec 3 11:00 AM — Dec 18 11:00 AM, Rzeszów, Weather by CustomWeather, © 2014

Note: Actual official high and low records may vary slightly from our data, if they occured in-between our weather recording intervals... More about our weather records

Advertising

Rzeszów weather history for previous 24 hours

 ConditionsComfort  
Time TempWeatherWind HumidityBarometerVisibility
11:00 AM
Dec 18
39 °FSprinkles. Partly sunny.13 mph93%29.92 "HgN/A
10:30 AM39 °FSprinkles. Partly sunny.12 mph87%29.92 "HgN/A
10:00 AM39 °FOvercast.12 mph87%29.92 "HgN/A
9:30 AM39 °FOvercast.13 mph87%29.92 "HgN/A
9:00 AM39 °FOvercast.10 mph87%29.89 "HgN/A
8:30 AM39 °FOvercast.10 mph87%29.89 "HgN/A
8:00 AM39 °FOvercast.10 mph81%29.89 "HgN/A
7:30 AM37 °FOvercast.12 mph87%29.86 "HgN/A
7:00 AM37 °FOvercast.9 mph87%29.86 "HgN/A
6:30 AM37 °FLight rain. Overcast.6 mph87%29.86 "HgN/A
6:00 AM37 °FOvercast.8 mph87%29.86 "HgN/A
5:30 AM37 °FOvercast.9 mph87%29.83 "HgN/A
4:30 AM36 °FOvercast.5 mph93%29.83 "HgN/A
4:00 AM36 °FOvercast.1 mph87%29.83 "Hg5 mi
3:30 AM34 °FPassing clouds.No wind100%29.83 "Hg5 mi
3:00 AM34 °FPassing clouds.No wind93%29.86 "Hg4 mi
2:30 AM32 °FClear.1 mph100%29.86 "Hg4 mi
2:00 AM32 °FClear.2 mph93%29.86 "Hg4 mi
1:30 AM32 °FClear.2 mph100%29.86 "Hg4 mi
1:00 AM32 °FIce fog.1 mph93%29.86 "Hg3 mi
12:30 AM32 °FIce fog.2 mph93%29.86 "Hg3 mi
12:00 AM32 °FIce fog.2 mph93%29.86 "Hg3 mi
11:00 PM
Dec 17
30 °FIce fog.3 mph100%29.86 "Hg3 mi
10:30 PM32 °FIce fog.2 mph93%29.86 "Hg3 mi
10:00 PM32 °FIce fog.3 mph93%29.86 "Hg3 mi
9:30 PM32 °FIce fog.No wind93%29.86 "Hg3 mi
9:00 PM32 °FIce fog.3 mph93%29.86 "Hg3 mi
8:30 PM32 °FClear.1 mph93%29.86 "Hg4 mi
8:00 PM32 °FClear.3 mph93%29.86 "Hg4 mi
7:30 PM32 °FClear.5 mph93%29.86 "Hg4 mi
7:00 PM32 °FClear.3 mph93%29.86 "Hg4 mi
6:30 PM32 °FClear.3 mph100%29.86 "Hg4 mi
6:00 PM34 °FClear.5 mph93%29.86 "Hg4 mi
5:30 PM34 °FClear.5 mph93%29.86 "Hg4 mi
5:00 PM32 °FClear.5 mph93%29.86 "Hg10 mi
4:30 PM36 °FPassing clouds.7 mph87%29.86 "HgN/A
4:00 PM37 °FPassing clouds.8 mph87%29.86 "HgN/A
3:30 PM37 °FPassing clouds.9 mph87%29.86 "HgN/A
3:00 PM37 °FScattered clouds.8 mph87%29.86 "HgN/A
2:30 PM39 °FScattered clouds.10 mph81%29.86 "HgN/A
2:00 PM39 °FScattered clouds.9 mph87%29.86 "HgN/A
1:30 PM41 °FScattered clouds.10 mph87%29.86 "HgN/A
1:00 PM41 °FBroken clouds.9 mph87%29.86 "HgN/A
12:30 PM41 °FPartly sunny.9 mph87%29.86 "HgN/A
12:00 PM41 °FPartly sunny.9 mph87%29.86 "HgN/A
Weather by CustomWeather, © 2014

See weather overviewHow to use our weather pages